Theta_e
352 353 353 353 353 352 353 353 354 354 354 354 353 351 338 346 349 349 348 348 347 346 343 343 344 344 343 343 343 343 341 342 344 345 343 342 345 345 346 344 344 343 342
352 353 354 354 354 354 354 355 356 357 357 357 354 354 352 351 350 350 350 348 346 346 346 345 344 342 343 345 345 344 343 343 343 344 344 342 344 346 345 346 346 344 343
353 353 354 355 356 357 358 358 357 358 358 357 356 354 354 353 352 352 350 347 345 344 342 342 342 344 344 342 341 343 343 343 344 345 344 345 345 345 345 345 346 345 344
353 353 354 355 357 358 358 358 355 354 355 355 355 355 354 353 351 349 347 346 345 345 343 343 343 344 340 338 339 338 338 343 343 344 345 345 346 344 344 345 346 346 344
352 352 354 356 356 355 353 353 353 352 351 351 352 353 352 351 349 347 346 344 344 343 344 345 343 343 340 340 337 337 345 346 347 346 344 343 346 344 344 344 346 345 346
350 352 353 350 348 350 351 353 352 352 351 351 351 351 351 349 348 348 345 343 343 343 342 342 342 343 342 342 336 338 345 346 346 348 346 346 346 346 345 345 344 346 345
351 352 350 344 343 346 349 351 353 354 353 351 349 347 348 347 347 345 344 344 344 343 343 342 344 345 342 342 337 338 341 346 346 346 347 347 346 344 345 346 346 345 343
352 352 351 344 342 345 348 349 353 355 352 350 348 346 347 347 347 347 346 345 344 342 342 344 346 345 342 342 340 337 340 344 345 347 346 346 345 345 345 344 343 344 343
352 352 353 348 346 349 348 348 352 354 351 349 349 348 348 347 348 348 347 348 348 345 347 346 345 346 344 341 342 339 337 338 339 340 341 341 342 344 345 345 346 345 344
352 352 353 351 351 351 352 352 353 353 353 352 351 351 349 348 348 348 348 348 348 347 347 346 344 344 343 340 341 341 337 336 336 337 339 340 341 342 342 342 342 342 344
352 353 354 354 353 354 354 354 354 355 355 355 354 353 353 350 350 351 350 349 345 345 343 343 341 336 341 338 340 342 341 339 337 336 334 338 339 340 339 337 337 339 342
354 356 357 358 358 358 357 356 355 355 354 354 353 352 352 353 352 350 347 346 346 347 345 342 343 339 338 335 335 341 341 341 340 338 336 333 334 338 339 338 338 337 337
358 357 358 358 358 359 359 358 356 355 355 353 352 348 348 349 350 350 347 345 347 346 344 342 337 337 340 339 335 338 337 339 339 340 339 336 335 334 335 336 336 333 330
356 358 360 361 360 360 360 356 355 357 358 356 352 354 352 351 350 350 348 345 345 342 343 338 339 337 339 338 336 335 337 338 338 338 337 339 337 337 336 335 332 329 327
360 361 361 361 361 360 360 358 353 352 352 352 351 349 349 348 347 349 347 344 342 343 341 341 341 339 336 337 336 336 336 337 337 336 338 336 337 338 337 337 335 333 329
350 354 359 360 361 358 354 354 355 353 351 347 343 341 340 343 344 343 340 340 341 340 336 337 338 338 338 336 334 335 338 338 338 338 336 338 336 337 338 337 336 335 333
352 354 358 358 356 355 352 347 342 340 340 340 339 339 339 340 341 342 342 342 341 339 338 339 339 339 338 338 338 338 338 338 338 337 336 336 337 337 337 336 336 335 335
343 344 343 342 341 341 342 342 341 341 340 339 338 338 337 337 337 337 338 338 339 340 340 340 339 338 338 338 338 339 338 338 337 336 337 336 334 334 335 333 331 327 329
337 337 337 337 338 341 342 341 338 339 338 337 335 335 334 332 331 332 333 334 335 336 335 335 337 336 336 337 337 337 336 335 334 334 335 335 335 336 335 332 330 327 327
339 338 337 337 337 337 337 337 336 335 334 334 332 329 330 329 327 327 327 328 327 327 329 329 332 333 335 336 335 335 333 332 333 334 334 334 334 335 335 335 333 329 327
335 335 337 336 335 333 335 335 334 334 333 333 333 333 332 330 327 326 324 325 326 327 327 328 331 330 331 332 333 333 334 334 333 333 334 333 333 333 333 333 333 331 327
335 335 335 335 334 335 334 334 333 332 332 331 331 331 332 331 329 328 328 326 325 324 323 324 325 327 328 329 329 330 331 331 331 329 329 329 329 330 331 331 330 328 325
333 332 334 336 336 334 334 335 335 334 334 333 333 333 332 332 330 326 324 323 324 327 326 324 324 324 324 324 325 325 327 327 326 325 325 328 329 329 327 326 324 325 325
329 331 330 327 325 325 328 329 330 331 331 329 329 329 328 325 322 319 320 319 320 319 321 327 326 326 326 325 325 324 324 324 324 324 324 324 324 324 323 323 323 323 321
328 328 329 327 325 324 323 323 324 325 324 323 322 321 321 321 321 322 322 322 320 320 320 319 321 323 322 322 325 325 324 324 324 323 323 323 322 322 321 321 320 320 320
328 327 327 328 324 323 325 325 324 322 321 321 321 321 321 322 324 324 324 325 324 323 322 322 322 321 321 321 320 321 321 321 321 322 324 324 323 323 322 322 321 321 321
Wind_Speed
29 29 29 29 29 30 29 27 25 22 20 23 25 20 22 21 23 23 21 18 18 20 22 25 25 23 22 21 22 25 27 27 30 28 26 19 21 16 16 19 25 28 32
29 28 27 28 28 27 29 28 25 24 23 22 22 21 22 19 21 19 18 16 16 18 18 19 16 15 16 17 18 20 24 27 29 32 27 25 22 20 18 20 20 26 30
27 23 23 22 20 19 20 20 20 21 21 22 21 19 19 17 17 16 16 16 16 15 14 15 13 13 13 14 17 20 23 26 29 31 30 27 24 22 21 22 24 22 27
20 17 17 16 15 15 16 17 19 19 19 20 21 19 18 17 17 16 16 16 16 15 14 14 13 12 11 13 16 20 22 26 29 30 29 30 30 27 23 23 24 25 24
17 15 13 12 14 14 16 16 15 15 15 15 16 18 18 18 18 16 15 15 15 14 14 13 12 11 11 13 17 16 15 17 21 28 30 30 31 30 29 27 26 27 26
18 16 14 14 15 15 16 16 14 13 13 14 15 17 18 18 17 16 15 15 15 14 13 12 11 10 10 11 14 14 13 13 15 17 23 27 29 26 25 25 25 25 25
21 20 17 16 16 16 16 16 16 14 15 15 15 16 18 18 17 16 15 15 15 14 14 14 12 10 9 9 10 12 9 9 10 11 20 25 18 20 20 21 26 27 32
23 23 20 18 17 16 17 16 15 14 15 15 15 16 16 17 17 17 16 16 15 15 14 15 15 12 10 9 8 7 5 3 5 7 10 13 13 17 21 18 16 19 22
26 25 22 20 19 18 17 17 15 14 14 15 15 17 18 16 17 19 19 19 18 17 16 16 17 16 12 10 8 7 5 4 5 6 8 8 8 13 19 16 16 19 22
27 25 21 20 19 19 16 15 15 16 14 15 16 17 18 18 17 17 19 21 21 20 19 18 17 15 13 12 10 9 6 5 7 8 9 10 14 14 11 13 14 16 13
24 21 19 19 17 15 15 15 15 16 17 17 18 19 19 19 20 20 22 23 23 22 21 21 19 18 15 13 12 11 9 7 10 11 11 11 12 13 13 10 10 14 16
22 19 17 18 15 13 12 12 14 16 18 19 19 21 21 21 22 21 22 22 22 22 22 20 19 18 20 17 17 13 10 11 12 13 12 12 12 12 11 13 15 15 16
22 20 18 17 15 13 12 11 13 15 16 15 15 19 20 21 24 23 20 21 23 23 22 21 22 24 21 18 17 14 14 14 12 15 16 12 11 11 13 15 16 18 19
24 23 20 18 16 16 13 10 12 14 14 16 18 20 21 21 23 24 21 19 18 19 21 21 19 19 18 19 17 16 14 13 14 16 17 14 13 15 15 16 17 17 19
23 20 20 20 20 19 18 15 15 16 17 18 20 20 21 24 22 18 18 19 19 20 20 20 21 21 19 16 14 14 15 16 19 20 21 19 19 19 18 17 18 18 20
15 18 18 18 16 14 16 15 14 14 14 14 15 14 13 12 12 12 14 15 17 18 18 18 19 21 23 24 26 25 23 22 23 25 24 24 22 22 21 19 20 21 21
6 9 10 10 10 10 10 9 7 5 4 5 4 4 6 9 12 13 13 15 18 19 21 22 23 24 24 26 28 29 25 21 21 21 19 19 19 22 22 22 23 24 25
4 4 5 5 5 6 6 5 3 1 1 2 4 5 6 7 7 7 10 13 16 18 21 23 24 24 23 22 21 19 16 16 15 14 19 20 17 18 20 20 19 19 19
3 4 4 5 5 5 5 5 1 1 1 1 2 5 7 5 6 7 8 9 12 14 15 14 14 14 15 14 13 12 14 13 13 13 14 15 16 18 20 18 16 14 15
5 4 4 4 6 6 7 6 3 2 1 3 1 4 6 7 7 7 7 7 8 10 12 12 11 11 12 11 11 10 11 10 10 13 15 17 18 21 23 21 21 21 20
6 6 6 6 6 6 4 2 4 2 3 3 6 6 8 9 10 11 11 9 10 11 10 9 7 9 10 11 10 10 11 11 13 13 14 16 16 19 20 20 23 25 22
8 8 7 7 6 4 5 3 3 4 3 1 1 2 5 6 9 11 11 13 12 12 12 11 10 8 5 8 11 11 12 11 12 14 14 17 18 18 16 16 17 17 14
11 7 9 11 7 6 6 4 4 4 2 4 1 2 4 5 7 9 9 11 12 11 12 12 11 11 10 9 8 7 6 6 6 7 7 5 6 6 5 7 9 10 7
13 12 15 14 12 10 9 10 9 9 8 7 8 9 10 9 8 10 11 12 14 14 12 10 9 10 11 11 10 8 7 7 9 10 9 8 6 7 8 9 9 9 10
16 15 12 11 9 13 14 14 15 14 14 12 12 11 9 8 6 3 6 7 9 11 11 10 9 9 9 9 9 10 10 10 11 12 12 12 12 13 13 14 14 14 15
12 13 13 14 12 11 9 11 11 9 7 5 5 4 3 1 3 4 6 8 10 11 12 12 12 13 13 14 15 15 15 16 16 14 15 16 17 18 19 20 21 23 23
Wind_Direction
244 247 249 253 252 253 253 253 255 259 255 253 250 249 249 259 254 250 250 250 243 233 235 246 258 265 264 261 266 261 255 255 261 266 267 270 261 263 252 240 236 234 233
246 251 255 255 256 257 258 258 257 256 257 253 251 250 250 242 236 235 241 240 238 233 235 241 243 245 256 266 271 266 263 260 262 266 269 265 266 260 260 251 243 239 233
247 249 257 257 254 251 250 249 244 242 246 246 252 249 245 239 238 241 240 238 234 228 228 231 232 243 254 265 270 268 266 266 264 264 266 265 260 253 254 251 241 244 239
241 245 255 254 246 239 234 230 231 240 243 246 245 242 238 235 234 233 235 234 232 232 232 235 235 245 257 273 280 278 274 265 257 258 261 259 256 251 249 245 244 244 242
233 235 243 237 228 222 222 218 222 229 237 241 242 238 238 236 230 230 229 225 226 230 233 237 245 255 272 288 299 287 277 270 260 253 256 260 251 247 240 244 248 254 245
216 221 225 219 217 217 215 215 220 227 235 237 234 236 237 234 232 232 230 226 227 229 229 232 240 257 271 297 312 298 275 268 260 258 263 255 246 243 242 249 248 246 248
217 209 209 213 214 212 213 215 223 231 238 242 239 236 233 233 229 230 232 235 238 240 235 226 236 258 271 299 318 336 273 270 263 261 274 268 250 243 247 249 247 249 249
214 212 211 212 215 210 213 219 223 232 239 240 240 237 236 234 233 234 235 237 242 241 237 241 248 252 268 289 307 335 346 305 279 277 284 270 247 252 251 250 245 250 248
214 216 218 215 213 215 217 222 227 234 239 239 242 241 243 240 237 237 235 240 243 243 243 250 252 249 255 265 282 298 315 315 297 294 298 292 286 268 234 219 228 241 249
215 217 223 225 222 223 229 233 235 238 246 247 248 249 248 247 240 240 241 246 248 247 251 257 257 246 254 261 267 272 277 300 287 286 282 280 278 286 278 270 252 257 270
213 215 220 225 224 227 234 238 243 243 245 249 252 250 251 247 245 243 242 246 253 259 260 254 256 263 256 257 255 261 276 259 267 280 283 274 267 256 248 261 264 270 270
201 206 210 216 217 218 224 229 232 239 246 251 253 251 253 255 252 251 255 258 256 259 262 269 263 262 270 259 248 249 261 259 263 272 274 274 270 265 259 260 267 267 275
193 187 190 198 203 211 223 232 239 242 249 255 260 265 263 263 263 260 260 265 260 255 255 250 262 263 258 261 252 249 247 252 260 266 274 276 274 265 257 260 265 270 270
191 194 201 214 223 231 229 237 251 257 258 262 265 263 263 265 266 265 261 262 257 257 260 258 250 248 251 252 252 246 257 261 264 266 265 264 259 259 260 262 263 269 269
196 205 218 221 223 227 231 234 250 262 259 272 274 272 273 276 279 265 250 251 255 258 259 253 252 255 252 251 262 275 273 275 273 263 258 256 254 258 265 267 269 268 272
248 240 229 232 225 221 241 243 259 263 261 268 277 281 289 291 274 250 247 250 255 257 258 260 260 259 264 265 269 276 281 285 275 256 248 250 251 254 258 265 268 269 270
279 238 219 199 204 220 229 233 238 253 280 300 319 332 312 276 273 272 268 263 259 260 264 272 277 276 275 275 275 278 286 292 279 249 242 243 249 256 251 263 268 267 267
256 216 194 188 192 196 200 203 211 226 300 350 355 339 325 322 309 286 275 272 271 272 273 273 275 275 278 281 274 267 264 272 262 259 255 249 248 253 262 266 264 269 261
211 227 210 189 181 190 188 179 176 68 82 266 296 324 322 337 328 318 305 290 285 282 281 281 280 278 272 271 267 270 271 265 249 243 238 240 246 251 253 256 259 255 251
201 210 205 162 136 134 124 131 123 97 331 288 347 61 36 19 10 359 351 342 336 326 314 286 277 281 278 279 275 275 274 263 261 257 253 251 256 263 256 256 250 249 250
181 175 156 139 118 93 133 173 201 212 140 69 55 41 35 37 38 27 17 9 9 7 359 342 291 281 289 287 288 293 275 273 273 273 271 266 265 263 260 263 265 247 243
168 160 168 171 146 139 179 182 165 155 178 175 325 343 11 39 37 39 27 34 36 31 26 22 22 12 331 298 294 290 285 286 285 283 283 270 260 259 262 265 253 246 250
170 170 160 155 159 161 163 184 176 150 148 131 124 12 27 33 39 40 40 30 25 18 21 23 26 26 19 8 358 349 328 295 282 284 295 302 244 241 238 242 243 238 240
147 134 127 116 112 107 104 102 101 104 117 107 99 94 94 79 70 73 48 38 32 27 16 4 7 11 10 10 8 355 335 309 297 292 288 277 253 248 254 246 238 245 253
138 138 141 138 123 117 111 102 100 98 95 90 85 79 77 86 95 57 22 14 6 8 7 6 359 349 344 343 332 324 320 317 309 300 294 286 277 268 259 254 250 252 259
161 157 146 143 134 125 131 128 121 110 110 95 98 69 27 339 296 292 303 311 317 323 325 323 322 316 316 320 321 317 314 310 305 294 287 283 279 272 267 266 265 266 267